Location: De Har
(53.3413°N, 6.6858°E)
Time: 19:59:50
(UTC+00:00)

SL-16 R/B - Pass Details

Date: 22 April 2026
Orbit: 841 x 845 km, 71.0° (Epoch: 21 May)

Event Time Altitude Azimuth Distance (km) Brightness Sun altitude
Rises 01:13:31 0° 327° (NNW) 3,416 5.8 -21.0°
Reaches altitude 10° 01:15:59 10° 326° (NW) 2,477 5.0 -20.8°
Maximum altitude 01:21:39 75° 242° (WSW) 878 2.1 -20.4°
Enters shadow 01:25:04 25° 161° (SSE) 1,650 3.3 -20.2°
